• In Germany
  • List of Countries
  • For 7 days
  • Water Temperature
  • Satellite Maps
  • Weather Map
  • Weather Widgets
  • user-avatar
    Login

    Hourly Weather Yulara

    Today, 24 June, Saturday

    Time Temperature Precipitation Wind Pressure Humidity
    00:00 +19°C° 0 mm 2 mps 719 mmHg 33%
    01:00 +18°C° 0 mm 2 mps 719 mmHg 35%
    02:00 +17°C° 0 mm 3 mps 719 mmHg 37%
    03:00 +17°C° 0 mm 3 mps 719 mmHg 38%
    04:00 +16°C° 0 mm 3 mps 719 mmHg 41%
    05:00 +14°C° 0 mm 3 mps 719 mmHg 44%
    06:00 +14°C° 0 mm 4 mps 719 mmHg 46%
    07:00 +15°C° 0 mm 4 mps 719 mmHg 45%
    08:00 +17°C° 0 mm 4 mps 719 mmHg 44%
    09:00 +16°C° 0 mm 5 mps 720 mmHg 50%
    10:00 +19°C° 0 mm 5 mps 720 mmHg 44%
    11:00 +21°C° 0 mm 5 mps 720 mmHg 39%
    12:00 +23°C° 0 mm 5 mps 720 mmHg 33%
    13:00 +23°C° 0 mm 5 mps 719 mmHg 31%
    14:00 +25°C° 0 mm 4 mps 719 mmHg 30%
    15:00 +26°C° 0 mm 3 mps 718 mmHg 26%
    16:00 +25°C° 0 mm 3 mps 718 mmHg 28%
    17:00 +23°C° 0 mm 4 mps 718 mmHg 31%
    18:00 +22°C° 0 mm 4 mps 718 mmHg 34%
    19:00 +21°C° 0 mm 5 mps 719 mmHg 37%
    20:00 +20°C° 0 mm 5 mps 719 mmHg 39%
    21:00 +19°C° 0 mm 5 mps 719 mmHg 42%
    22:00 +19°C° 0.1 mm 5 mps 719 mmHg 43%
    23:00 +19°C° 0.1 mm 5 mps 720 mmHg 45%

    Tomorrow, 25 June, Sunday

    Time Temperature Precipitation Wind Pressure Humidity
    00:00 +17°C° 0.1 mm 5 mps 720 mmHg 47%
    01:00 +18°C° 0 mm 4 mps 720 mmHg 48%
    02:00 +18°C° 0 mm 4 mps 720 mmHg 50%
    03:00 +17°C° 0 mm 4 mps 720 mmHg 51%
    04:00 +17°C° 0.1 mm 4 mps 720 mmHg 54%
    05:00 +15°C° 0.1 mm 5 mps 720 mmHg 56%
    06:00 +15°C° 0.1 mm 5 mps 720 mmHg 59%
    07:00 +15°C° 0.1 mm 5 mps 720 mmHg 59%
    08:00 +15°C° 0.1 mm 5 mps 720 mmHg 58%
    09:00 +15°C° 0.1 mm 6 mps 721 mmHg 58%
    10:00 +16°C° 0.1 mm 6 mps 721 mmHg 57%
    11:00 +16°C° 0.1 mm 6 mps 721 mmHg 55%
    12:00 +17°C° 0.1 mm 6 mps 720 mmHg 54%
    13:00 +17°C° 0 mm 6 mps 720 mmHg 54%
    14:00 +19°C° 0 mm 6 mps 720 mmHg 53%
    15:00 +19°C° 0 mm 6 mps 719 mmHg 52%
    16:00 +17°C° 0 mm 6 mps 719 mmHg 56%
    17:00 +16°C° 0 mm 7 mps 719 mmHg 59%
    18:00 +16°C° 0 mm 7 mps 720 mmHg 63%
    19:00 +15°C° 0.1 mm 7 mps 720 mmHg 64%
    20:00 +15°C° 0.1 mm 7 mps 720 mmHg 65%
    21:00 +15°C° 0.1 mm 7 mps 721 mmHg 67%
    22:00 +15°C° 0.2 mm 7 mps 721 mmHg 68%
    23:00 +14°C° 0.2 mm 6 mps 721 mmHg 69%

    Day after tomorrow, 26 June, Monday

    Time Temperature Precipitation Wind Pressure Humidity
    00:00 +14°C° 0.2 mm 6 mps 721 mmHg 70%
    01:00 +14°C° 0.3 mm 6 mps 721 mmHg 71%
    02:00 +14°C° 0.3 mm 6 mps 720 mmHg 73%
    03:00 +12°C° 0.3 mm 7 mps 720 mmHg 74%
    04:00 +12°C° 0.1 mm 7 mps 720 mmHg 74%
    05:00 +12°C° 0.1 mm 7 mps 720 mmHg 74%
    06:00 +12°C° 0.1 mm 7 mps 720 mmHg 74%
    07:00 +12°C° 0.1 mm 7 mps 721 mmHg 73%
    08:00 +14°C° 0.1 mm 7 mps 721 mmHg 71%
    09:00 +14°C° 0.1 mm 7 mps 722 mmHg 70%
    10:00 +15°C° 0 mm 7 mps 722 mmHg 65%
    11:00 +16°C° 0 mm 7 mps 721 mmHg 60%
    12:00 +17°C° 0 mm 8 mps 721 mmHg 55%
    13:00 +17°C° 0.4 mm 7 mps 721 mmHg 56%
    14:00 +16°C° 0.4 mm 6 mps 721 mmHg 58%
    15:00 +16°C° 0.4 mm 5 mps 720 mmHg 60%
    16:00 +15°C° 0.5 mm 6 mps 720 mmHg 65%
    17:00 +15°C° 0.5 mm 6 mps 720 mmHg 69%
    18:00 +14°C° 0.5 mm 7 mps 720 mmHg 74%
    19:00 +14°C° 0.2 mm 7 mps 721 mmHg 76%
    20:00 +14°C° 0.2 mm 7 mps 721 mmHg 77%
    21:00 +12°C° 0.2 mm 7 mps 721 mmHg 79%
    22:00 +13°C° 0.2 mm 6 mps 721 mmHg 79%
    23:00 +13°C° 0.2 mm 6 mps 721 mmHg 78%

    27 June, Tuesday

    Time Temperature Precipitation Wind Pressure Humidity
    00:00 +13°C° 0.2 mm 6 mps 721 mmHg 78%
    01:00 +13°C° 0.2 mm 6 mps 721 mmHg 78%
    02:00 +13°C° 0.2 mm 6 mps 721 mmHg 78%
    03:00 +12°C° 0.2 mm 5 mps 721 mmHg 78%
    04:00 +12°C° 0.3 mm 5 mps 721 mmHg 79%
    05:00 +12°C° 0.3 mm 5 mps 721 mmHg 79%
    06:00 +12°C° 0.3 mm 5 mps 721 mmHg 80%
    07:00 +12°C° 0.2 mm 5 mps 721 mmHg 78%
    08:00 +12°C° 0.2 mm 5 mps 721 mmHg 76%
    09:00 +13°C° 0.2 mm 4 mps 722 mmHg 75%
    10:00 +13°C° 0.2 mm 4 mps 721 mmHg 72%
    11:00 +14°C° 0.2 mm 4 mps 721 mmHg 69%
    12:00 +14°C° 0.2 mm 4 mps 721 mmHg 66%
    13:00 +14°C° 0 mm 4 mps 721 mmHg 64%
    14:00 +16°C° 0 mm 3 mps 720 mmHg 63%
    15:00 +16°C° 0 mm 3 mps 720 mmHg 62%
    16:00 +16°C° 0 mm 3 mps 720 mmHg 64%
    17:00 +14°C° 0 mm 3 mps 720 mmHg 67%
    18:00 +14°C° 0 mm 3 mps 721 mmHg 69%
    19:00 +13°C° 0 mm 3 mps 721 mmHg 72%
    20:00 +13°C° 0 mm 3 mps 722 mmHg 75%
    21:00 +12°C° 0 mm 3 mps 723 mmHg 78%
    22:00 +12°C° 0 mm 3 mps 723 mmHg 80%
    23:00 +12°C° 0 mm 4 mps 723 mmHg 82%

    28 June, Wednesday

    Time Temperature Precipitation Wind Pressure Humidity
    00:00 +11°C° 0 mm 4 mps 723 mmHg 85%
    01:00 +11°C° 0 mm 4 mps 723 mmHg 83%
    02:00 +12°C° 0 mm 5 mps 723 mmHg 82%
    03:00 +12°C° 0 mm 5 mps 723 mmHg 81%
    04:00 +10°C° 0 mm 5 mps 723 mmHg 80%
    05:00 +10°C° 0 mm 5 mps 723 mmHg 78%
    06:00 +10°C° 0 mm 6 mps 723 mmHg 77%
    07:00 +10°C° 0 mm 6 mps 724 mmHg 75%
    08:00 +10°C° 0 mm 7 mps 725 mmHg 73%
    09:00 +11°C° 0 mm 7 mps 725 mmHg 71%
    10:00 +11°C° 0 mm 8 mps 725 mmHg 66%
    11:00 +12°C° 0 mm 8 mps 725 mmHg 61%
    12:00 +13°C° 0 mm 8 mps 725 mmHg 56%
    13:00 +13°C° 0 mm 8 mps 725 mmHg 53%
    14:00 +15°C° 0 mm 8 mps 724 mmHg 50%
    15:00 +15°C° 0 mm 8 mps 724 mmHg 47%
    16:00 +14°C° 0 mm 7 mps 724 mmHg 51%
    17:00 +12°C° 0 mm 7 mps 725 mmHg 54%
    18:00 +11°C° 0 mm 6 mps 725 mmHg 57%
    19:00 +11°C° 0 mm 6 mps 726 mmHg 60%
    20:00 +10°C° 0 mm 6 mps 726 mmHg 63%
    21:00 +10°C° 0 mm 6 mps 727 mmHg 66%
    22:00 +9°C° 0 mm 6 mps 727 mmHg 67%
    23:00 +9°C° 0 mm 6 mps 727 mmHg 68%

    29 June, Thursday

    Time Temperature Precipitation Wind Pressure Humidity
    00:00 +8°C° 0 mm 6 mps 727 mmHg 69%
    01:00 +7°C° 0 mm 6 mps 727 mmHg 69%
    02:00 +7°C° 0 mm 6 mps 727 mmHg 69%
    03:00 +6°C° 0 mm 5 mps 727 mmHg 69%
    04:00 +6°C° 0 mm 5 mps 727 mmHg 71%
    05:00 +6°C° 0 mm 5 mps 727 mmHg 73%
    06:00 +5°C° 0 mm 5 mps 727 mmHg 75%
    07:00 +5°C° 0 mm 6 mps 728 mmHg 71%
    08:00 +5°C° 0 mm 7 mps 728 mmHg 67%
    09:00 +6°C° 0 mm 7 mps 729 mmHg 62%
    10:00 +7°C° 0 mm 8 mps 728 mmHg 56%
    11:00 +9°C° 0 mm 8 mps 728 mmHg 50%
    12:00 +11°C° 0 mm 8 mps 727 mmHg 44%
    13:00 +11°C° 0 mm 8 mps 727 mmHg 42%
    14:00 +12°C° 0 mm 8 mps 726 mmHg 40%
    15:00 +12°C° 0 mm 8 mps 725 mmHg 39%
    16:00 +12°C° 0 mm 7 mps 726 mmHg 42%
    17:00 +11°C° 0 mm 6 mps 726 mmHg 45%
    18:00 +10°C° 0 mm 6 mps 726 mmHg 48%
    19:00 +10°C° 0 mm 6 mps 726 mmHg 51%
    20:00 +9°C° 0 mm 5 mps 726 mmHg 54%
    21:00 +9°C° 0 mm 5 mps 727 mmHg 58%
    22:00 +8°C° 0 mm 5 mps 727 mmHg 60%
    23:00 +8°C° 0 mm 5 mps 726 mmHg 62%
    Show more